This is the latest recevied weather packets stored in our database for station/object DO1TOB-60. If no packets are shown the sender has not sent any weather packets the latest 1 day(s).
| Time | Temp. | Humidity | Pressure | Rain* | Wind** | Luminosity | Snow |
|---|---|---|---|---|---|---|---|
| 1777974987 | 17.22° C | 80% | 1010.1 hPa | 0 mm | 2.24 m/s, 328° | - | - |
| 1777974927 | 17.22° C | 80% | 1010.1 hPa | 0 mm | 0.45 m/s, 321° | - | - |
| 1777974447 | 16.67° C | 81% | 1010.1 hPa | 0 mm | 0.89 m/s, 333° | - | - |
| 1777974386 | 16.67° C | 81% | 1010 hPa | 0 mm | 0.45 m/s, 336° | - | - |
| 1777974327 | 16.67° C | 80% | 1010.1 hPa | 0 mm | 1.34 m/s, 338° | - | - |
| 1777974147 | 17.22° C | 81% | 1010.2 hPa | 0 mm | 1.34 m/s, 341° | - | - |
| 1777974087 | 17.22° C | 81% | 1010.1 hPa | 0 mm | 0.45 m/s, 346° | - | - |
| 1777974026 | 17.22° C | 81% | 1010.1 hPa | 0 mm | 0.89 m/s, 336° | - | - |
| 1777973907 | 17.22° C | 83% | 1010.2 hPa | 0 mm | 1.34 m/s, 325° | - | - |
| 1777973847 | 16.67° C | 83% | 1010.1 hPa | 0 mm | 2.24 m/s, 313° | - | - |
| 1777973787 | 16.67° C | 82% | 1010.2 hPa | 0 mm | 1.34 m/s, 331° | - | - |
| 1777973727 | 16.67° C | 82% | 1010.2 hPa | 0 mm | 1.79 m/s, 321° | - | - |
| 1777973366 | 16.67° C | 84% | 1010.2 hPa | 0 mm | 0.89 m/s, 332° | - | - |
| 1777973306 | 16.67° C | 83% | 1010.2 hPa | 0 mm | 1.79 m/s, 329° | - | - |
| 1777973247 | 16.67° C | 83% | 1010.2 hPa | 0 mm | 0.89 m/s, 327° | - | - |
| 1777973187 | 16.67° C | 83% | 1010.2 hPa | 0 mm | 0.89 m/s, 319° | - | - |
| 1777973067 | 16.67° C | 84% | 1010.2 hPa | 0 mm | 2.24 m/s, 315° | - | - |
| 1777972946 | 16.11° C | 83% | 1010.2 hPa | 0 mm | 1.34 m/s, 330° | - | - |
| 1777972887 | 16.11° C | 83% | 1010.3 hPa | 0 mm | 0.89 m/s, 334° | - | - |
| 1777972707 | 16.11° C | 82% | 1010.3 hPa | 0 mm | 0.45 m/s, 333° | - | - |
| 1777972047 | 16.11° C | 83% | 1010.3 hPa | 0 mm | 1.34 m/s, 332° | - | - |
| 1777971147 | 15.56° C | 85% | 1010.4 hPa | 0 mm | 0.45 m/s, 329° | - | - |
| 1777971086 | 15.56° C | 85% | 1010.4 hPa | 0 mm | 0.89 m/s, 328° | - | - |
| 1777970906 | 15.56° C | 85% | 1010.4 hPa | 0 mm | 0.89 m/s, 327° | - | - |
| 1777970847 | 15.56° C | 86% | 1010.4 hPa | 0 mm | 1.34 m/s, 326° | - | - |
* Rain latest hour (hover to see other rain measurements)
** Current wind speed in m/s (hover to see current wind gust speed)